Weather History for Frankfort, MI

Change the Weather History Date:

Saturday, December 8, 2012

  Actual Average (KTVC) Record (KTVC)
Temperature  
Mean Temperature 34 °F 29 °F  
Max Temperature 36 °F 34 °F 60 °F (1946)
Min Temperature 31 °F 23 °F -3 °F (1958)
Degree Days  
Heating Degree Days 32 36  
Month to date heating degree days 279  
Since 1 July heating degree days 1898  
Moisture  
Dew Point 27 °F    
Average Humidity 78    
Maximum Humidity 94    
Minimum Humidity 65    
Precipitation  
Precipitation 0.00 in 0.08 in 0.36 in (1996)
Month to date precipitation 0.65  
Year to date precipitation 31.21  
Sea Level Pressure  
Sea Level Pressure 30.02 in    
Wind  
Wind Speed 4 mph (NE)    
Max Wind Speed 9 mph    
Max Gust Speed 16 mph    
Visibility 9 miles    
Events Snow    
T = Trace of Precipitation, MM = Missing Value Source: NWS Daily Summary

Daily Weather History Graph

Daily Weather History Graph

Search for Another Location

Airport:

Trip Planner

Search our weather history database for the weather conditions in past years. The results will help you decide how hot, cold, wet, or windy it might be!

Date:

Astronomy

Dec. 08, 2012 Rise Set
Actual Time 8:09 AM EST 5:04 PM EST
Civil Twilight 7:36 AM EST 5:37 PM EST
Nautical Twilight 6:59 AM EST 6:14 PM EST
Astronomical Twilight 6:23 AM EST 6:49 PM EST
Moon 2:22 AM EST (12/8) 1:43 PM EST (12/8)
Length of Visible Light 10h 01m
Length of Day
8h 55m
Waning Crescent, 28% of the Moon is Illuminated
Dec 8
Waning Crescent
Dec 13
New
Dec 20
First Quarter
Dec 28
Full
Jan 4
Last Quarter

Hourly Weather History & Observations

Time (EST) Temp. Windchill Dew Point Humidity Pressure Visibility Wind Dir Wind Speed Gust Speed Precip Events Conditions
12:15 AM 35.2 °F 30.3 °F 27.3 °F 73% 29.96 in 10.0 mi ENE 5.8 mph - N/A   Overcast
12:35 AM 35.1 °F 30.1 °F 27.5 °F 74% 29.96 in 10.0 mi ENE 5.8 mph - N/A   Overcast
12:55 AM 34.7 °F 28.8 °F 27.5 °F 75% 29.96 in 10.0 mi ENE 6.9 mph - N/A   Mostly Cloudy
1:15 AM 34.7 °F 27.5 °F 27.5 °F 75% 29.95 in 10.0 mi ENE 9.2 mph 16.1 mph N/A   Mostly Cloudy
1:35 AM 34.5 °F 27.3 °F 27.5 °F 76% 29.96 in 10.0 mi NE 9.2 mph - N/A   Overcast
1:55 AM 34.5 °F 29.4 °F 27.3 °F 75% 29.95 in 10.0 mi NE 5.8 mph - N/A   Overcast
2:15 AM 34.3 °F 27.0 °F 27.1 °F 75% 29.95 in 10.0 mi ENE 9.2 mph - N/A   Overcast
2:35 AM 34.3 °F 27.7 °F 27.0 °F 74% 29.96 in 10.0 mi NE 8.1 mph - N/A   Overcast
2:56 AM 34.2 °F 30.0 °F 26.6 °F 74% 29.96 in 10.0 mi ENE 4.6 mph - N/A   Overcast
3:16 AM 34.0 °F 28.0 °F 26.6 °F 74% 29.95 in 10.0 mi ENE 6.9 mph - N/A   Overcast
3:36 AM 33.8 °F 27.7 °F 27.1 °F 77% 29.95 in 7.0 mi East 6.9 mph - N/A Snow Light Snow
3:56 AM 33.1 °F 28.7 °F 27.9 °F 81% 29.95 in 7.0 mi East 4.6 mph - N/A Snow Light Snow
4:16 AM 33.1 °F 28.7 °F 27.7 °F 81% 29.94 in 10.0 mi ENE 4.6 mph - N/A   Overcast
4:36 AM 32.9 °F 26.7 °F 27.5 °F 81% 29.93 in 10.0 mi East 6.9 mph - N/A   Overcast
4:56 AM 32.5 °F 26.2 °F 27.5 °F 82% 29.93 in 10.0 mi ENE 6.9 mph - N/A   Overcast
5:11 AM 32.7 °F 28.3 °F 27.3 °F 81% 29.93 in 10.0 mi ENE 4.6 mph - N/A   Overcast
5:31 AM 32.5 °F 26.2 °F 26.6 °F 79% 29.93 in 10.0 mi ENE 6.9 mph - N/A   Overcast
6:12 AM 32.5 °F 28.1 °F 26.6 °F 79% 29.94 in 10.0 mi East 4.6 mph - N/A   Overcast
6:32 AM 32.2 °F - 27.0 °F 81% 29.95 in 10.0 mi Calm Calm - N/A   Overcast
6:52 AM 32.0 °F - 27.1 °F 82% 29.95 in 10.0 mi Calm Calm - N/A Snow Light Snow
7:12 AM 32.0 °F - 27.7 °F 84% 29.96 in 7.0 mi Calm Calm - N/A Snow Light Snow
7:32 AM 31.8 °F - 27.5 °F 84% 29.96 in 7.0 mi Calm Calm - N/A Snow Light Snow
7:52 AM 31.8 °F - 27.7 °F 85% 29.97 in 10.0 mi Calm Calm - N/A   Overcast
8:12 AM 32.0 °F 28.7 °F 27.5 °F 83% 29.96 in 10.0 mi ENE 3.5 mph - N/A   Overcast
8:33 AM 32.0 °F 26.4 °F 27.3 °F 83% 29.97 in 10.0 mi ENE 5.8 mph - N/A   Overcast
8:53 AM 32.0 °F - 27.5 °F 83% 29.98 in 10.0 mi Calm Calm - N/A   Overcast
9:13 AM 32.2 °F - 28.6 °F 87% 29.99 in 2.5 mi Calm Calm - N/A Snow Light Snow
9:33 AM 31.8 °F - 28.9 °F 89% 29.99 in 1.0 mi Calm Calm - N/A Snow Light Snow
9:53 AM 31.8 °F - 29.5 °F 91% 29.99 in 1.0 mi Calm Calm - N/A Snow Light Snow
10:13 AM 31.6 °F - 29.7 °F 92% 30.00 in 0.5 mi Calm Calm - N/A Snow Light Snow
10:33 AM 32.0 °F - 30.4 °F 94% 30.01 in 1.0 mi Calm Calm - N/A Snow Light Snow
10:53 AM 32.0 °F - 30.6 °F 94% 30.01 in 0.8 mi Calm Calm - N/A Snow Light Snow
11:14 AM 32.9 °F 27.5 °F 31.1 °F 93% 30.02 in 2.0 mi North 5.8 mph - N/A Snow Light Snow
11:34 AM 33.4 °F 30.4 °F 31.1 °F 91% 30.02 in 10.0 mi North 3.5 mph - N/A   Overcast
11:54 AM 34.3 °F 29.2 °F 29.7 °F 83% 30.01 in 10.0 mi North 5.8 mph - N/A   Overcast
12:14 PM 34.2 °F 30.0 °F 29.1 °F 82% 30.01 in 10.0 mi NNE 4.6 mph - N/A   Overcast
12:34 PM 34.3 °F 30.2 °F 28.6 °F 79% 30.01 in 10.0 mi North 4.6 mph - N/A   Overcast
12:54 PM 34.7 °F 30.6 °F 28.0 °F 77% 30.01 in 10.0 mi North 4.6 mph - N/A   Overcast
1:14 PM 34.9 °F - 27.9 °F 76% 30.02 in 10.0 mi Calm Calm - N/A   Overcast
1:35 PM 35.6 °F 29.9 °F 26.8 °F 70% 30.01 in 10.0 mi North 6.9 mph - N/A   Overcast
1:55 PM 36.1 °F 32.3 °F 27.3 °F 70% 30.02 in 10.0 mi North 4.6 mph - N/A   Overcast
2:15 PM 34.9 °F 30.8 °F 28.6 °F 78% 30.02 in 10.0 mi NNW 4.6 mph - N/A   Overcast
2:35 PM 34.7 °F - 28.8 °F 79% 30.03 in 10.0 mi Calm Calm - N/A   Overcast
2:55 PM 34.7 °F 28.8 °F 27.7 °F 76% 30.03 in 10.0 mi North 6.9 mph - N/A   Overcast
3:15 PM 35.1 °F 31.0 °F 27.1 °F 73% 30.04 in 10.0 mi North 4.6 mph - N/A   Overcast
3:35 PM 35.1 °F 30.1 °F 26.6 °F 71% 30.05 in 10.0 mi North 5.8 mph - N/A   Overcast
3:55 PM 34.9 °F 29.9 °F 26.1 °F 70% 30.04 in 10.0 mi North 5.8 mph - N/A   Overcast
4:16 PM 34.2 °F - 25.7 °F 71% 30.05 in 10.0 mi Calm Calm - N/A   Overcast
4:36 PM 34.0 °F 31.0 °F 24.8 °F 69% 30.06 in 10.0 mi NE 3.5 mph - N/A   Mostly Cloudy
4:56 PM 33.8 °F - 24.4 °F 69% 30.07 in 10.0 mi Calm Calm - N/A   Mostly Cloudy
5:16 PM 33.8 °F - 23.9 °F 67% 30.08 in 10.0 mi Calm Calm - N/A   Mostly Cloudy
5:36 PM 32.7 °F - 25.5 °F 75% 30.10 in 10.0 mi Calm Calm - N/A   Overcast
5:56 PM 33.8 °F - 24.1 °F 68% 30.11 in 10.0 mi Calm Calm - N/A   Overcast
6:11 PM 33.8 °F - 23.9 °F 67% 30.13 in 10.0 mi Calm Calm - N/A   Overcast
6:31 PM 33.3 °F - 24.4 °F 70% 30.13 in 10.0 mi Calm Calm - N/A   Overcast
6:52 PM 33.6 °F - 22.8 °F 65% 30.12 in 10.0 mi Calm Calm - N/A   Overcast
7:12 PM 33.4 °F - 23.4 °F 67% 30.13 in 10.0 mi Calm Calm - N/A   Overcast
8:12 PM 32.0 °F - 27.9 °F 85% 30.15 in 10.0 mi Calm Calm - N/A   Overcast
8:52 PM 33.3 °F 28.9 °F 25.3 °F 73% 30.14 in 10.0 mi ENE 4.6 mph - N/A   Overcast
9:13 PM 32.9 °F - 25.2 °F 73% 30.14 in 10.0 mi Calm Calm - N/A   Overcast
9:33 PM 32.0 °F - 25.0 °F 75% 30.14 in 10.0 mi Calm Calm - N/A   Mostly Cloudy
9:53 PM 32.0 °F - 25.2 °F 76% 30.14 in 10.0 mi Calm Calm - N/A   Mostly Cloudy
10:13 PM 31.6 °F - 25.3 °F 78% 30.14 in 10.0 mi Calm Calm - N/A   Mostly Cloudy
10:33 PM 31.8 °F 28.5 °F 24.6 °F 75% 30.13 in 10.0 mi East 3.5 mph - N/A   Mostly Cloudy
10:53 PM 32.0 °F - 24.3 °F 73% 30.14 in 10.0 mi Calm Calm - N/A   Clear
11:13 PM 31.5 °F - 23.9 °F 74% 30.15 in 10.0 mi Calm Calm - N/A   Clear
11:33 PM 31.3 °F - 23.0 °F 71% 30.15 in 10.0 mi Calm Calm - N/A   Clear
11:54 PM 31.1 °F - 23.0 °F 72% 30.16 in 10.0 mi Calm Calm - N/A   Clear